Time,TemperatureF,DewpointF,PressureIn,WindDirection,WindDirectionDegrees,WindSpeedMPH,WindSpeedGustMPH,Humidity,HourlyPrecipIn,Conditions,Clouds,dailyrainin,SolarRadiationWatts/m^2,SoftwareType,DateUTC
2013-05-20 00:00:00,51.2,50.1,30.13,NE,45,0.0,1.2,96,0.01,RA,FEW,0.00,0.0,WeatherDisplay:10.37,2013-05-20 04:00:00,
2013-05-20 00:01:00,51.2,50.1,30.13,NE,45,0.0,0.0,96,0.01,RA,FEW,0.00,0.0,WeatherDisplay:10.37,2013-05-20 04:01:00,
2013-05-20 00:06:00,51.3,50.5,30.13,NE,45,0.0,0.0,97,0.01,RA,FEW,0.00,0.0,WeatherDisplay:10.37,2013-05-20 04:06:00,
2013-05-20 00:11:00,51.3,50.5,30.13,NE,46,0.0,1.2,97,0.01,CLR,FEW,0.00,0.0,WeatherDisplay:10.37,2013-05-20 04:11:00,
2013-05-20 00:16:00,51.3,50.5,30.13,NE,45,0.7,2.3,97,0.01,CLR,FEW,0.00,0.0,WeatherDisplay:10.37,2013-05-20 04:16:00,
2013-05-20 00:21:00,51.4,50.6,30.13,NE,46,0.0,0.0,97,0.01,CLR,FEW,0.00,0.0,WeatherDisplay:10.37,2013-05-20 04:21:00,
2013-05-20 00:26:00,51.3,50.5,30.12,NE,46,0.0,0.0,97,0.01,CLR,FEW,0.00,0.0,WeatherDisplay:10.37,2013-05-20 04:26:00,
2013-05-20 00:31:00,51.3,50.5,30.12,NE,46,0.0,0.0,97,0.00,CLR,FEW,0.00,0.0,WeatherDisplay:10.37,2013-05-20 04:31:00,
2013-05-20 00:36:00,51.3,50.5,30.12,NE,46,0.0,0.0,97,0.00,CLR,FEW,0.00,0.0,WeatherDisplay:10.37,2013-05-20 04:36:00,
2013-05-20 00:41:00,51.5,50.7,30.11,NE,45,0.0,0.0,97,0.01,RA,FEW,0.01,0.0,WeatherDisplay:10.37,2013-05-20 04:41:00,
2013-05-20 00:46:00,51.6,50.8,30.11,NE,45,0.0,0.0,97,0.01,RA,FEW,0.01,0.0,WeatherDisplay:10.37,2013-05-20 04:46:00,
2013-05-20 00:51:00,51.7,50.9,30.11,NE,45,0.0,0.0,97,0.01,,FEW,0.01,0.0,WeatherDisplay:10.37,2013-05-20 04:51:00,
2013-05-20 00:56:00,51.8,51.0,30.10,NE,45,0.2,1.2,97,0.01,CLR,FEW,0.01,0.0,WeatherDisplay:10.37,2013-05-20 04:56:00,
2013-05-20 01:01:00,51.9,51.1,30.10,East,87,1.6,3.0,97,0.01,CLR,FEW,0.01,0.0,WeatherDisplay:10.37,2013-05-20 05:01:00,
2013-05-20 01:06:00,52.0,51.2,30.10,East,96,1.1,3.5,97,0.01,CLR,FEW,0.01,0.0,WeatherDisplay:10.37,2013-05-20 05:06:00,
2013-05-20 01:11:00,51.9,51.1,30.09,East,95,0.0,0.0,97,0.01,CLR,FEW,0.01,0.0,WeatherDisplay:10.37,2013-05-20 05:11:00,
2013-05-20 01:16:00,51.9,51.1,30.09,East,94,1.3,3.5,97,0.01,CLR,FEW,0.01,0.0,WeatherDisplay:10.37,2013-05-20 05:16:00,
2013-05-20 01:21:00,51.7,50.9,30.09,ENE,72,0.0,0.0,97,0.01,CLR,FEW,0.01,0.0,WeatherDisplay:10.37,2013-05-20 05:21:00,
2013-05-20 01:26:00,51.6,50.8,30.08,ENE,72,0.0,0.0,97,0.01,CLR,FEW,0.01,0.0,WeatherDisplay:10.37,2013-05-20 05:26:00,
2013-05-20 01:31:00,51.5,50.7,30.08,ENE,72,0.0,1.2,97,0.01,CLR,FEW,0.01,0.0,WeatherDisplay:10.37,2013-05-20 05:31:00,
2013-05-20 01:36:00,51.4,50.6,30.08,ENE,72,0.0,0.0,97,0.01,CLR,FEW,0.01,0.0,WeatherDisplay:10.37,2013-05-20 05:36:00,
2013-05-20 01:41:00,51.5,50.7,30.08,ENE,71,0.0,0.0,97,0.00,CLR,FEW,0.01,0.0,WeatherDisplay:10.37,2013-05-20 05:41:00,
2013-05-20 01:46:00,51.4,50.6,30.08,ENE,72,0.0,0.0,97,0.00,CLR,FEW,0.01,0.0,WeatherDisplay:10.37,2013-05-20 05:46:00,
2013-05-20 01:51:00,51.5,50.7,30.08,ENE,72,0.3,1.0,97,0.00,CLR,FEW,0.01,0.0,WeatherDisplay:10.37,2013-05-20 05:51:00,
2013-05-20 01:56:00,51.7,50.9,30.08,ENE,72,0.2,1.0,97,0.01,RA,FEW,0.02,0.0,WeatherDisplay:10.37,2013-05-20 05:56:00,
2013-05-20 02:01:00,51.8,51.0,30.08,ENE,72,0.0,1.2,97,0.01,RA,FEW,0.02,0.0,WeatherDisplay:10.37,2013-05-20 06:01:00,
2013-05-20 02:06:00,51.7,50.9,30.08,ENE,72,0.3,2.3,97,0.01,,FEW,0.02,0.0,WeatherDisplay:10.37,2013-05-20 06:06:00,
2013-05-20 02:11:00,51.8,51.0,30.07,ENE,72,0.3,2.3,97,0.01,CLR,FEW,0.02,0.0,WeatherDisplay:10.37,2013-05-20 06:11:00,
2013-05-20 02:16:00,51.9,51.1,30.07,ENE,72,0.0,0.0,97,0.01,CLR,FEW,0.02,0.0,WeatherDisplay:10.37,2013-05-20 06:16:00,
2013-05-20 02:21:00,51.9,51.1,30.07,ENE,72,0.4,1.2,97,0.02,RA,FEW,0.03,0.0,WeatherDisplay:10.37,2013-05-20 06:21:00,
2013-05-20 02:26:00,51.8,51.0,30.06,ENE,72,0.2,1.2,97,0.02,RA,FEW,0.03,0.0,WeatherDisplay:10.37,2013-05-20 06:26:00,
2013-05-20 02:31:00,51.7,50.9,30.06,ENE,71,0.0,0.0,97,0.03,RA,FEW,0.04,0.0,WeatherDisplay:10.37,2013-05-20 06:31:00,
2013-05-20 02:36:00,51.6,50.8,30.06,ENE,71,0.0,0.0,97,0.04,RA,FEW,0.06,0.0,WeatherDisplay:10.37,2013-05-20 06:36:00,
2013-05-20 02:41:00,51.6,50.8,30.05,ENE,71,0.0,0.0,97,0.06,RA,FEW,0.07,0.0,WeatherDisplay:10.37,2013-05-20 06:41:00,
2013-05-20 02:46:00,51.7,50.9,30.05,ENE,72,0.4,2.3,97,0.07,RA,FEW,0.08,0.0,WeatherDisplay:10.37,2013-05-20 06:46:00,
2013-05-20 02:51:00,51.7,50.9,30.05,ENE,71,0.2,1.2,97,0.08,RA,FEW,0.09,0.0,WeatherDisplay:10.37,2013-05-20 06:51:00,
2013-05-20 02:56:00,51.6,50.8,30.04,ENE,71,0.6,2.3,97,0.08,RA,FEW,0.10,0.0,WeatherDisplay:10.37,2013-05-20 06:56:00,
2013-05-20 03:01:00,51.5,50.7,30.04,ENE,71,0.4,2.3,97,0.09,RA,FEW,0.11,0.0,WeatherDisplay:10.37,2013-05-20 07:01:00,
2013-05-20 03:06:00,51.4,50.6,30.04,ENE,69,0.2,1.0,97,0.10,RA,FEW,0.12,0.0,WeatherDisplay:10.37,2013-05-20 07:06:00,
2013-05-20 03:11:00,51.4,50.6,30.03,ENE,70,1.0,2.0,97,0.11,RA,FEW,0.13,0.0,WeatherDisplay:10.37,2013-05-20 07:11:00,
2013-05-20 03:16:00,51.6,50.8,30.03,ENE,69,0.7,2.3,97,0.12,RA,FEW,0.14,0.0,WeatherDisplay:10.37,2013-05-20 07:16:00,
2013-05-20 03:22:00,51.7,50.9,30.03,ENE,70,0.0,1.2,97,0.12,RA,FEW,0.15,0.0,WeatherDisplay:10.37,2013-05-20 07:22:00,
2013-05-20 03:27:00,51.7,50.9,30.03,ENE,70,0.0,0.0,97,0.12,RA,FEW,0.15,0.0,WeatherDisplay:10.37,2013-05-20 07:27:00,
2013-05-20 03:32:00,51.7,50.9,30.03,ENE,70,0.0,0.0,97,0.11,,FEW,0.15,0.0,WeatherDisplay:10.37,2013-05-20 07:32:00,
2013-05-20 03:37:00,51.6,50.8,30.03,ENE,70,0.0,0.0,97,0.10,RA,FEW,0.16,0.0,WeatherDisplay:10.37,2013-05-20 07:37:00,
2013-05-20 03:42:00,51.7,50.9,30.02,ENE,69,0.4,1.2,97,0.09,RA,FEW,0.16,0.0,WeatherDisplay:10.37,2013-05-20 07:42:00,
2013-05-20 03:47:00,51.8,51.0,30.02,ENE,70,0.7,1.0,97,0.08,,FEW,0.16,0.0,WeatherDisplay:10.37,2013-05-20 07:47:00,
2013-05-20 03:52:00,51.8,51.0,30.02,ENE,69,0.0,0.0,97,0.07,CLR,FEW,0.16,0.0,WeatherDisplay:10.37,2013-05-20 07:52:00,
2013-05-20 03:57:00,51.7,50.9,30.01,ENE,70,0.0,0.0,97,0.06,CLR,FEW,0.16,0.0,WeatherDisplay:10.37,2013-05-20 07:57:00,
2013-05-20 04:02:00,51.6,50.8,30.01,ENE,69,1.5,3.5,97,0.05,CLR,FEW,0.16,0.0,WeatherDisplay:10.37,2013-05-20 08:02:00,
2013-05-20 04:07:00,51.6,50.8,30.01,ENE,69,0.0,0.0,97,0.04,CLR,FEW,0.16,0.0,WeatherDisplay:10.37,2013-05-20 08:07:00,
2013-05-20 04:12:00,51.6,50.8,30.00,ENE,69,0.0,0.0,97,0.03,CLR,FEW,0.16,0.0,WeatherDisplay:10.37,2013-05-20 08:12:00,
2013-05-20 04:17:00,51.5,50.7,30.00,ENE,70,0.0,0.0,97,0.02,CLR,FEW,0.16,0.0,WeatherDisplay:10.37,2013-05-20 08:17:00,
2013-05-20 04:22:00,51.8,51.0,30.00,NE,44,1.0,2.3,97,0.01,CLR,FEW,0.16,0.0,WeatherDisplay:10.37,2013-05-20 08:22:00,
2013-05-20 04:27:00,51.9,51.1,29.99,ENE,70,0.5,1.2,97,0.01,CLR,FEW,0.16,0.0,WeatherDisplay:10.37,2013-05-20 08:27:00,
2013-05-20 04:32:00,51.8,51.0,29.99,ENE,70,0.0,0.0,97,0.01,CLR,FEW,0.16,0.0,WeatherDisplay:10.37,2013-05-20 08:32:00,
2013-05-20 04:37:00,51.9,51.1,29.99,East,86,1.3,3.5,97,0.00,CLR,FEW,0.16,0.0,WeatherDisplay:10.37,2013-05-20 08:37:00,
2013-05-20 04:42:00,51.9,51.1,29.99,East,86,0.1,1.2,97,0.00,CLR,FEW,0.16,0.0,WeatherDisplay:10.37,2013-05-20 08:42:00,
2013-05-20 04:47:00,52.1,51.3,29.99,East,86,0.6,2.3,97,0.00,CLR,FEW,0.16,0.0,WeatherDisplay:10.37,2013-05-20 08:47:00,
2013-05-20 04:52:00,52.4,51.6,29.99,East,86,0.1,1.2,97,0.00,CLR,FEW,0.16,0.0,WeatherDisplay:10.37,2013-05-20 08:52:00,
2013-05-20 04:57:00,52.4,51.6,29.99,East,86,0.0,0.0,97,0.00,CLR,FEW,0.16,0.0,WeatherDisplay:10.37,2013-05-20 08:57:00,
2013-05-20 05:02:00,52.3,51.5,29.99,WSW,245,0.6,2.3,97,0.00,CLR,FEW,0.16,0.0,WeatherDisplay:10.37,2013-05-20 09:02:00,
2013-05-20 05:07:00,52.3,51.5,29.99,WSW,246,0.0,0.0,97,0.00,CLR,FEW,0.16,0.0,WeatherDisplay:10.37,2013-05-20 09:07:00,
2013-05-20 05:12:00,52.3,51.5,29.98,WSW,246,0.0,0.0,97,0.00,CLR,FEW,0.16,0.0,WeatherDisplay:10.37,2013-05-20 09:12:00,
2013-05-20 05:17:00,52.3,51.5,29.98,WSW,246,0.0,0.0,97,0.00,CLR,FEW,0.16,0.0,WeatherDisplay:10.37,2013-05-20 09:17:00,
2013-05-20 05:22:00,52.4,51.6,29.98,WSW,247,0.2,1.2,97,0.00,CLR,FEW,0.16,0.0,WeatherDisplay:10.37,2013-05-20 09:22:00,
2013-05-20 05:27:00,52.4,51.6,29.97,WSW,247,0.0,1.2,97,0.00,CLR,FEW,0.16,0.0,WeatherDisplay:10.37,2013-05-20 09:27:00,
2013-05-20 05:32:00,52.4,51.6,29.97,SW,224,0.5,1.2,97,0.00,CLR,FEW,0.16,5.0,WeatherDisplay:10.37,2013-05-20 09:32:00,
2013-05-20 05:37:00,52.5,51.7,29.97,South,170,0.0,1.2,97,0.00,BKN,FEW,0.16,5.0,WeatherDisplay:10.37,2013-05-20 09:37:00,
2013-05-20 05:42:00,52.5,51.7,29.97,South,170,0.5,3.5,97,0.00,BKN,FEW,0.16,5.0,WeatherDisplay:10.37,2013-05-20 09:42:00,
2013-05-20 05:47:00,52.5,51.7,29.97,SW,222,0.0,0.0,97,0.00,BKN,FEW,0.16,5.0,WeatherDisplay:10.37,2013-05-20 09:47:00,
2013-05-20 05:52:00,52.5,51.7,29.97,ENE,61,1.2,2.3,97,0.00,BKN,FEW,0.16,5.0,WeatherDisplay:10.37,2013-05-20 09:52:00,
2013-05-20 05:57:00,52.6,51.8,29.96,ENE,60,0.3,1.2,97,0.00,BKN,FEW,0.16,7.0,WeatherDisplay:10.37,2013-05-20 09:57:00,
2013-05-20 06:02:00,52.7,51.9,29.96,ENE,60,0.2,2.3,97,0.00,CLR,FEW,0.16,5.0,WeatherDisplay:10.37,2013-05-20 10:02:00,
2013-05-20 06:07:00,52.7,52.2,29.96,NE,48,0.2,1.2,98,0.00,CLR,FEW,0.16,5.0,WeatherDisplay:10.37,2013-05-20 10:07:00,
2013-05-20 06:12:00,52.6,51.8,29.96,NE,48,0.8,2.3,97,0.00,CLR,FEW,0.16,0.0,WeatherDisplay:10.37,2013-05-20 10:12:00,
2013-05-20 06:17:00,52.7,52.2,29.96,NE,48,0.3,2.3,98,0.00,CLR,FEW,0.16,5.0,WeatherDisplay:10.37,2013-05-20 10:17:00,
2013-05-20 06:22:00,52.7,51.9,29.96,NE,47,0.0,1.2,97,0.00,CLR,FEW,0.16,5.0,WeatherDisplay:10.37,2013-05-20 10:22:00,
2013-05-20 06:27:00,52.8,52.0,29.96,NE,47,0.0,0.0,97,0.00,BKN,FEW,0.16,9.0,WeatherDisplay:10.37,2013-05-20 10:27:00,
2013-05-20 06:32:00,52.6,51.8,29.96,NE,46,0.1,1.2,97,0.00,BKN,FEW,0.16,16.0,WeatherDisplay:10.37,2013-05-20 10:32:00,
2013-05-20 06:37:00,52.7,51.9,29.96,NE,47,1.0,2.3,97,0.00,BKN,FEW,0.16,14.0,WeatherDisplay:10.37,2013-05-20 10:37:00,
2013-05-20 06:42:00,52.8,52.0,29.96,NE,47,0.1,1.2,97,0.00,BKN,FEW,0.16,11.0,WeatherDisplay:10.37,2013-05-20 10:42:00,
2013-05-20 06:47:00,52.7,51.9,29.96,NE,47,0.1,1.0,97,0.00,BKN,FEW,0.16,11.0,WeatherDisplay:10.37,2013-05-20 10:47:00,
2013-05-20 06:52:00,52.8,52.0,29.96,NW,322,0.4,1.2,97,0.00,CLR,FEW,0.16,11.0,WeatherDisplay:10.37,2013-05-20 10:52:00,
2013-05-20 06:57:00,52.8,52.0,29.96,NNE,26,0.1,1.2,97,0.00,BKN,FEW,0.16,14.0,WeatherDisplay:10.37,2013-05-20 10:57:00,
2013-05-20 07:02:00,52.8,52.0,29.96,North,360,0.2,1.2,97,0.00,BKN,FEW,0.16,18.0,WeatherDisplay:10.37,2013-05-20 11:02:00,
2013-05-20 07:07:00,52.7,51.9,29.96,North,5,0.0,2.3,97,0.00,BKN,FEW,0.16,16.0,WeatherDisplay:10.37,2013-05-20 11:07:00,
2013-05-20 07:12:00,52.6,51.8,29.96,North,360,0.0,0.0,97,0.01,RA,FEW,0.17,16.0,WeatherDisplay:10.37,2013-05-20 11:12:00,
2013-05-20 07:17:00,52.6,51.8,29.96,North,5,0.0,0.0,97,0.01,RA,FEW,0.17,12.0,WeatherDisplay:10.37,2013-05-20 11:17:00,
2013-05-20 07:22:00,52.7,51.9,29.96,North,360,0.0,0.0,97,0.02,RA,FEW,0.18,14.0,WeatherDisplay:10.37,2013-05-20 11:22:00,
2013-05-20 07:27:00,52.6,51.8,29.95,NE,46,0.0,0.0,97,0.02,RA,FEW,0.18,23.0,WeatherDisplay:10.37,2013-05-20 11:27:00,
2013-05-20 07:32:00,52.6,51.8,29.95,NE,46,0.0,0.0,97,0.02,BKN,FEW,0.18,32.0,WeatherDisplay:10.37,2013-05-20 11:32:00,
2013-05-20 07:37:00,52.7,51.9,29.95,WNW,303,1.0,3.5,97,0.02,BKN,FEW,0.18,37.0,WeatherDisplay:10.37,2013-05-20 11:37:00,
2013-05-20 07:42:00,52.8,52.3,29.93,North,355,2.9,3.5,98,0.02,BKN,FEW,0.18,42.0,WeatherDisplay:10.37,2013-05-20 11:42:00,
2013-05-20 07:47:00,52.9,52.4,29.93,NW,322,0.5,3.0,98,0.02,BKN,FEW,0.18,54.0,WeatherDisplay:10.37,2013-05-20 11:47:00,
2013-05-20 07:52:00,53.1,52.3,29.95,NW,323,0.1,1.2,97,0.02,BKN,FEW,0.18,44.0,WeatherDisplay:10.37,2013-05-20 11:52:00,
2013-05-20 07:57:00,53.0,52.2,29.95,ENE,69,0.6,1.2,97,0.02,BKN,FEW,0.18,49.0,WeatherDisplay:10.37,2013-05-20 11:57:00,
2013-05-20 08:02:00,53.1,52.3,29.95,ENE,68,0.2,1.2,97,0.02,BKN,FEW,0.18,84.0,WeatherDisplay:10.37,2013-05-20 12:02:00,
2013-05-20 08:07:00,53.1,52.3,29.95,ENE,69,0.8,1.2,97,0.02,BKN,FEW,0.18,83.0,WeatherDisplay:10.37,2013-05-20 12:07:00,
2013-05-20 08:12:00,53.2,52.4,29.94,ENE,69,0.0,0.0,97,0.01,BKN,FEW,0.18,40.0,WeatherDisplay:10.37,2013-05-20 12:12:00,
2013-05-20 08:17:00,53.3,52.5,29.94,ENE,69,0.0,0.0,97,0.01,BKN,FEW,0.18,56.0,WeatherDisplay:10.37,2013-05-20 12:17:00,
2013-05-20 08:22:00,53.4,52.6,29.95,ENE,69,0.0,0.0,97,0.00,BKN,FEW,0.18,53.0,WeatherDisplay:10.37,2013-05-20 12:22:00,
2013-05-20 08:27:00,53.5,52.7,29.95,ENE,69,0.0,0.0,97,0.00,BKN,FEW,0.18,46.0,WeatherDisplay:10.37,2013-05-20 12:27:00,
2013-05-20 08:32:00,53.5,52.7,29.95,ENE,69,0.9,2.3,97,0.00,BKN,FEW,0.18,44.0,WeatherDisplay:10.37,2013-05-20 12:32:00,
2013-05-20 08:37:00,53.7,52.9,29.95,North,360,0.1,1.2,97,0.00,BKN,FEW,0.18,56.0,WeatherDisplay:10.37,2013-05-20 12:37:00,
2013-05-20 08:42:00,53.7,52.9,29.95,WNW,284,2.0,3.5,97,0.00,BKN,FEW,0.18,51.0,WeatherDisplay:10.37,2013-05-20 12:42:00,
2013-05-20 08:47:00,53.7,52.9,29.95,WNW,284,1.3,3.5,97,0.00,BKN,FEW,0.18,53.0,WeatherDisplay:10.37,2013-05-20 12:47:00,
2013-05-20 08:52:00,53.8,53.0,29.94,WNW,283,0.0,0.0,97,0.00,BKN,FEW,0.18,65.0,WeatherDisplay:10.37,2013-05-20 12:52:00,
2013-05-20 08:57:00,53.8,53.0,29.94,WNW,283,0.0,1.2,97,0.00,BKN,FEW,0.18,74.0,WeatherDisplay:10.37,2013-05-20 12:57:00,
2013-05-20 09:02:00,53.9,53.1,29.94,WNW,284,0.0,1.2,97,0.00,BKN,FEW,0.18,98.0,WeatherDisplay:10.37,2013-05-20 13:02:00,
2013-05-20 09:07:00,54.0,53.2,29.94,WNW,283,0.0,1.2,97,0.00,BKN,FEW,0.18,216.0,WeatherDisplay:10.37,2013-05-20 13:07:00,
2013-05-20 09:12:00,54.1,53.3,29.94,WNW,284,0.0,0.0,97,0.00,BKN,FEW,0.18,107.0,WeatherDisplay:10.37,2013-05-20 13:12:00,
2013-05-20 09:17:00,54.2,53.4,29.94,WNW,283,0.0,0.0,97,0.00,BKN,FEW,0.18,120.0,WeatherDisplay:10.37,2013-05-20 13:17:00,
2013-05-20 09:22:00,54.3,53.5,29.94,WNW,284,0.0,1.2,97,0.00,BKN,FEW,0.18,114.0,WeatherDisplay:10.37,2013-05-20 13:22:00,
2013-05-20 09:27:00,54.3,53.5,29.94,WNW,284,0.0,1.2,97,0.00,BKN,FEW,0.18,139.0,WeatherDisplay:10.37,2013-05-20 13:27:00,
2013-05-20 09:32:00,54.3,53.5,29.94,WNW,283,0.0,0.0,97,0.00,BKN,FEW,0.18,156.0,WeatherDisplay:10.37,2013-05-20 13:32:00,
2013-05-20 09:37:00,54.4,53.6,29.94,WNW,283,1.7,2.3,97,0.00,BKN,FEW,0.18,142.0,WeatherDisplay:10.37,2013-05-20 13:37:00,
2013-05-20 09:42:00,54.5,53.7,29.94,WNW,284,0.8,3.0,97,0.00,BKN,FEW,0.18,113.0,WeatherDisplay:10.37,2013-05-20 13:42:00,
2013-05-20 09:47:00,54.6,53.8,29.94,WNW,283,2.3,3.5,97,0.00,BKN,FEW,0.18,86.0,WeatherDisplay:10.37,2013-05-20 13:47:00,
2013-05-20 09:52:00,54.6,53.8,29.93,WNW,284,0.2,1.2,97,0.00,BKN,FEW,0.18,77.0,WeatherDisplay:10.37,2013-05-20 13:52:00,
2013-05-20 09:57:00,54.7,53.9,29.93,WNW,284,0.0,0.0,97,0.00,BKN,FEW,0.18,104.0,WeatherDisplay:10.37,2013-05-20 13:57:00,
2013-05-20 10:02:00,54.8,54.0,29.93,WNW,283,1.5,2.3,97,0.00,BKN,FEW,0.18,81.0,WeatherDisplay:10.37,2013-05-20 14:02:00,
2013-05-20 10:07:00,54.8,54.0,29.94,WNW,284,2.2,2.3,97,0.00,BKN,FEW,0.18,51.0,WeatherDisplay:10.37,2013-05-20 14:07:00,
2013-05-20 10:13:00,55.0,54.2,29.94,WNW,283,0.5,1.0,97,0.00,OVC,FEW,0.18,33.0,WeatherDisplay:10.37,2013-05-20 14:13:00,
2013-05-20 10:18:00,55.0,54.2,29.94,WNW,284,0.0,0.0,97,0.02,RA,FEW,0.20,39.0,WeatherDisplay:10.37,2013-05-20 14:18:00,
2013-05-20 10:23:00,55.0,54.2,29.93,WNW,284,0.0,0.0,97,0.03,RA,FEW,0.21,35.0,WeatherDisplay:10.37,2013-05-20 14:23:00,
2013-05-20 10:28:00,55.1,54.3,29.93,WNW,284,0.0,0.0,97,0.04,RA,FEW,0.22,58.0,WeatherDisplay:10.37,2013-05-20 14:28:00,
2013-05-20 10:33:00,55.2,54.4,29.93,WNW,284,0.0,0.0,97,0.05,RA,FEW,0.23,51.0,WeatherDisplay:10.37,2013-05-20 14:33:00,
2013-05-20 10:38:00,55.3,54.5,29.93,WNW,283,0.0,1.2,97,0.06,RA,FEW,0.24,54.0,WeatherDisplay:10.37,2013-05-20 14:38:00,
2013-05-20 10:43:00,55.4,54.6,29.93,WNW,284,0.0,0.0,97,0.07,RA,FEW,0.25,54.0,WeatherDisplay:10.37,2013-05-20 14:43:00,
2013-05-20 10:48:00,55.2,54.4,29.93,WNW,283,0.0,0.0,97,0.08,RA,FEW,0.26,58.0,WeatherDisplay:10.37,2013-05-20 14:48:00,
2013-05-20 10:53:00,55.2,54.4,29.93,WNW,283,0.0,0.0,97,0.08,RA,FEW,0.27,60.0,WeatherDisplay:10.37,2013-05-20 14:53:00,
2013-05-20 10:58:00,55.3,54.7,29.93,WNW,283,0.0,0.0,98,0.09,RA,FEW,0.27,93.0,WeatherDisplay:10.37,2013-05-20 14:58:00,
2013-05-20 11:03:00,55.5,54.9,29.93,WNW,284,0.2,1.2,98,0.09,BKN,FEW,0.27,98.0,WeatherDisplay:10.37,2013-05-20 15:03:00,
2013-05-20 11:08:00,55.3,54.7,29.92,WNW,284,0.0,0.0,98,0.09,BKN,FEW,0.27,93.0,WeatherDisplay:10.37,2013-05-20 15:08:00,
2013-05-20 11:13:00,55.5,54.9,29.92,WNW,284,0.0,0.0,98,0.09,BKN,FEW,0.27,132.0,WeatherDisplay:10.37,2013-05-20 15:13:00,
2013-05-20 11:18:00,55.6,55.0,29.92,WNW,283,0.0,0.0,98,0.07,BKN,FEW,0.27,206.0,WeatherDisplay:10.37,2013-05-20 15:18:00,
2013-05-20 11:23:00,55.8,55.2,29.91,WNW,283,0.0,0.0,98,0.06,BKN,FEW,0.27,299.0,WeatherDisplay:10.37,2013-05-20 15:23:00,
2013-05-20 11:28:00,56.0,55.4,29.91,WNW,284,0.6,1.2,98,0.05,BKN,FEW,0.27,432.0,WeatherDisplay:10.37,2013-05-20 15:28:00,
2013-05-20 11:33:00,56.4,55.6,29.91,WNW,283,1.3,3.5,97,0.04,BKN,FEW,0.27,410.0,WeatherDisplay:10.37,2013-05-20 15:33:00,
2013-05-20 11:38:00,57.1,56.3,29.91,West,277,2.5,4.6,97,0.03,BKN,FEW,0.27,483.0,WeatherDisplay:10.37,2013-05-20 15:38:00,
2013-05-20 11:43:00,57.3,56.5,29.91,West,267,3.6,4.0,97,0.02,BKN,FEW,0.27,230.0,WeatherDisplay:10.37,2013-05-20 15:43:00,
2013-05-20 11:48:00,57.6,56.8,29.91,West,268,0.4,3.5,97,0.01,BKN,FEW,0.27,193.0,WeatherDisplay:10.37,2013-05-20 15:48:00,
2013-05-20 11:53:00,57.7,56.9,29.91,West,268,2.0,3.5,97,0.00,BKN,FEW,0.27,323.0,WeatherDisplay:10.37,2013-05-20 15:53:00,
2013-05-20 11:58:00,57.8,57.0,29.91,West,268,1.1,3.5,97,0.00,BKN,FEW,0.27,292.0,WeatherDisplay:10.37,2013-05-20 15:58:00,
2013-05-20 12:03:00,58.3,57.5,29.91,SSW,204,1.2,2.3,97,0.00,BKN,FEW,0.27,345.0,WeatherDisplay:10.37,2013-05-20 16:03:00,
2013-05-20 12:08:00,58.0,56.9,29.90,South,178,1.3,2.3,96,0.00,BKN,FEW,0.27,494.0,WeatherDisplay:10.37,2013-05-20 16:08:00,
2013-05-20 12:13:00,57.8,56.7,29.90,SE,142,1.0,2.3,96,0.00,BKN,FEW,0.27,411.0,WeatherDisplay:10.37,2013-05-20 16:13:00,
2013-05-20 12:18:00,57.9,56.8,29.90,SE,142,0.3,2.3,96,0.00,BKN,FEW,0.27,466.0,WeatherDisplay:10.37,2013-05-20 16:18:00,
2013-05-20 12:23:00,58.4,57.3,29.88,SE,131,0.6,2.3,96,0.00,SCT,FEW,0.27,657.0,WeatherDisplay:10.37,2013-05-20 16:23:00,
2013-05-20 12:28:00,59.0,57.9,29.88,West,281,3.1,4.0,96,0.00,SCT,FEW,0.27,605.0,WeatherDisplay:10.37,2013-05-20 16:28:00,
2013-05-20 12:33:00,59.0,57.6,29.88,West,281,2.0,3.5,95,0.00,BKN,FEW,0.27,524.0,WeatherDisplay:10.37,2013-05-20 16:33:00,
2013-05-20 12:38:00,59.3,57.6,29.88,West,281,0.0,0.0,94,0.00,FEW,,0.27,898.0,WeatherDisplay:10.37,2013-05-20 16:38:00,
2013-05-20 12:43:00,59.9,58.2,29.88,West,281,0.0,0.0,94,0.00,CLR,FEW,0.27,942.0,WeatherDisplay:10.37,2013-05-20 16:43:00,
2013-05-20 12:48:00,60.5,58.5,29.88,West,281,0.0,0.0,93,0.00,CLR,FEW,0.27,937.0,WeatherDisplay:10.37,2013-05-20 16:48:00,
2013-05-20 12:53:00,60.7,58.4,29.88,West,281,0.0,0.0,92,0.00,CLR,FEW,0.27,935.0,WeatherDisplay:10.37,2013-05-20 16:53:00,
2013-05-20 12:58:00,61.0,58.4,29.88,West,281,0.3,1.2,91,0.00,CLR,FEW,0.27,918.0,WeatherDisplay:10.37,2013-05-20 16:58:00,
2013-05-20 13:03:00,61.4,58.7,29.88,West,281,0.0,1.2,91,0.00,FEW,,0.27,932.0,WeatherDisplay:10.37,2013-05-20 17:03:00,
2013-05-20 13:08:00,61.9,58.9,29.88,West,281,0.0,0.0,90,0.00,CLR,FEW,0.27,916.0,WeatherDisplay:10.37,2013-05-20 17:08:00,
2013-05-20 13:13:00,62.6,59.3,29.88,West,281,0.0,0.0,89,0.00,CLR,FEW,0.27,918.0,WeatherDisplay:10.37,2013-05-20 17:13:00,
2013-05-20 13:18:00,63.3,59.7,29.88,West,281,0.0,0.0,88,0.00,CLR,FEW,0.27,969.0,WeatherDisplay:10.37,2013-05-20 17:18:00,
2013-05-20 13:23:00,63.7,59.8,29.86,West,281,0.0,0.0,87,0.00,CLR,FEW,0.27,958.0,WeatherDisplay:10.37,2013-05-20 17:23:00,
2013-05-20 13:28:00,64.2,59.9,29.86,West,281,0.0,0.0,86,0.00,CLR,FEW,0.27,962.0,WeatherDisplay:10.37,2013-05-20 17:28:00,
2013-05-20 13:33:00,64.6,60.0,29.86,West,281,0.0,0.0,85,0.00,CLR,FEW,0.27,953.0,WeatherDisplay:10.37,2013-05-20 17:33:00,
2013-05-20 13:38:00,65.0,60.0,29.86,West,281,0.0,0.0,84,0.00,CLR,FEW,0.27,954.0,WeatherDisplay:10.37,2013-05-20 17:38:00,
2013-05-20 13:43:00,65.6,60.6,29.86,West,281,0.0,0.0,84,0.00,CLR,FEW,0.27,1100.0,WeatherDisplay:10.37,2013-05-20 17:43:00,
2013-05-20 13:48:00,66.3,61.7,29.86,West,281,0.0,0.0,85,0.00,CLR,FEW,0.27,1158.0,WeatherDisplay:10.37,2013-05-20 17:48:00,
2013-05-20 13:53:00,67.2,61.2,29.86,West,281,0.0,2.3,81,0.00,CLR,FEW,0.27,1199.0,WeatherDisplay:10.37,2013-05-20 17:53:00,
2013-05-20 13:58:00,68.0,61.6,29.86,West,281,0.3,2.3,80,0.00,SCT,FEW,0.27,534.0,WeatherDisplay:10.37,2013-05-20 17:58:00,
2013-05-20 14:03:00,68.4,61.6,29.86,WNW,295,2.1,5.0,79,0.00,SCT,FEW,0.27,534.0,WeatherDisplay:10.37,2013-05-20 18:03:00,
2013-05-20 14:08:00,68.9,61.8,29.86,WNW,292,2.5,5.8,78,0.00,CLR,FEW,0.27,1155.0,WeatherDisplay:10.37,2013-05-20 18:08:00,
2013-05-20 14:13:00,68.8,61.3,29.86,West,272,1.2,3.5,77,0.00,SCT,FEW,0.27,512.0,WeatherDisplay:10.37,2013-05-20 18:13:00,
2013-05-20 14:18:00,68.9,61.8,29.86,West,273,0.9,2.3,78,0.00,SCT,FEW,0.27,1060.0,WeatherDisplay:10.37,2013-05-20 18:18:00,
2013-05-20 14:23:00,69.0,61.9,29.86,West,273,1.2,4.0,78,0.00,CLR,FEW,0.27,962.0,WeatherDisplay:10.37,2013-05-20 18:23:00,
2013-05-20 14:28:00,69.2,61.7,29.86,WSW,258,2.5,3.5,77,0.00,CLR,FEW,0.27,904.0,WeatherDisplay:10.37,2013-05-20 18:28:00,
2013-05-20 14:33:00,69.5,61.6,29.86,NW,315,4.4,6.9,76,0.00,CLR,FEW,0.27,875.0,WeatherDisplay:10.37,2013-05-20 18:33:00,
2013-05-20 14:38:00,70.0,61.3,29.85,WNW,297,8.0,10.4,74,0.00,CLR,FEW,0.27,863.0,WeatherDisplay:10.37,2013-05-20 18:38:00,
2013-05-20 14:43:00,70.8,60.9,29.85,West,272,9.4,11.5,71,0.00,CLR,FEW,0.27,863.0,WeatherDisplay:10.37,2013-05-20 18:43:00,
2013-05-20 14:48:00,71.1,60.8,29.85,West,263,5.7,11.5,70,0.00,CLR,FEW,0.27,842.0,WeatherDisplay:10.37,2013-05-20 18:48:00,
2013-05-20 14:53:00,71.3,61.0,29.85,WNW,298,3.6,8.1,70,0.00,CLR,FEW,0.27,339.0,WeatherDisplay:10.37,2013-05-20 18:53:00,
2013-05-20 14:58:00,71.3,60.6,29.85,West,267,2.7,6.9,69,0.00,BKN,FEW,0.27,206.0,WeatherDisplay:10.37,2013-05-20 18:58:00,
2013-05-20 15:03:00,71.2,59.7,29.85,West,259,1.3,6.9,67,0.00,BKN,FEW,0.27,257.0,WeatherDisplay:10.37,2013-05-20 19:03:00,
2013-05-20 15:08:00,71.3,60.6,29.84,West,261,0.5,5.8,69,0.00,SCT,FEW,0.27,438.0,WeatherDisplay:10.37,2013-05-20 19:08:00,
2013-05-20 15:13:00,71.4,59.9,29.84,West,268,3.7,6.9,67,0.00,CLR,FEW,0.27,865.0,WeatherDisplay:10.37,2013-05-20 19:13:00,
2013-05-20 15:18:00,71.8,59.4,29.84,WNW,292,4.3,5.8,65,0.00,CLR,FEW,0.27,817.0,WeatherDisplay:10.37,2013-05-20 19:18:00,
2013-05-20 15:23:00,72.0,59.2,29.84,WSW,243,4.9,8.1,64,0.00,BKN,FEW,0.27,304.0,WeatherDisplay:10.37,2013-05-20 19:23:00,
2013-05-20 15:28:00,72.0,59.6,29.84,WNW,287,4.6,8.1,65,0.00,BKN,FEW,0.27,352.0,WeatherDisplay:10.37,2013-05-20 19:28:00,
2013-05-20 15:33:00,72.0,59.6,29.84,WNW,299,4.3,6.0,65,0.00,BKN,FEW,0.27,243.0,WeatherDisplay:10.37,2013-05-20 19:33:00,
2013-05-20 15:38:00,71.7,60.6,29.84,WNW,288,0.7,3.0,68,0.00,BKN,FEW,0.27,279.0,WeatherDisplay:10.37,2013-05-20 19:38:00,
2013-05-20 15:43:00,71.9,59.5,29.84,WNW,288,0.1,3.5,65,0.00,CLR,FEW,0.27,689.0,WeatherDisplay:10.37,2013-05-20 19:43:00,
2013-05-20 15:48:00,72.2,59.8,29.84,WNW,288,1.9,3.5,65,0.00,BKN,FEW,0.27,251.0,WeatherDisplay:10.37,2013-05-20 19:48:00,
2013-05-20 15:53:00,72.2,60.6,29.84,WNW,288,0.9,3.0,67,0.00,SCT,FEW,0.27,415.0,WeatherDisplay:10.37,2013-05-20 19:53:00,
2013-05-20 15:58:00,72.1,60.1,29.84,WNW,288,1.3,2.0,66,0.00,SCT,FEW,0.27,489.0,WeatherDisplay:10.37,2013-05-20 19:58:00,
2013-05-20 16:03:00,72.3,59.4,29.84,West,273,0.3,3.5,64,0.00,BKN,FEW,0.27,230.0,WeatherDisplay:10.37,2013-05-20 20:03:00,
2013-05-20 16:08:00,72.3,59.0,29.83,West,273,2.6,4.6,63,0.00,BKN,FEW,0.27,279.0,WeatherDisplay:10.37,2013-05-20 20:08:00,
2013-05-20 16:13:00,72.2,58.5,29.83,West,273,0.3,3.5,62,0.00,BKN,FEW,0.27,158.0,WeatherDisplay:10.37,2013-05-20 20:13:00,
2013-05-20 16:18:00,72.0,59.2,29.83,West,273,0.6,2.3,64,0.00,BKN,FEW,0.27,193.0,WeatherDisplay:10.37,2013-05-20 20:18:00,
2013-05-20 16:23:00,71.8,57.6,29.83,WNW,294,5.5,6.9,61,0.00,BKN,FEW,0.27,213.0,WeatherDisplay:10.37,2013-05-20 20:23:00,
2013-05-20 16:28:00,72.1,57.9,29.83,West,277,5.5,7.0,61,0.00,BKN,FEW,0.27,146.0,WeatherDisplay:10.37,2013-05-20 20:28:00,
2013-05-20 16:33:00,72.2,57.5,29.83,WNW,293,1.7,2.3,60,0.00,BKN,FEW,0.27,171.0,WeatherDisplay:10.37,2013-05-20 20:33:00,
2013-05-20 16:38:00,72.3,58.1,29.83,WNW,292,0.4,2.3,61,0.00,BKN,FEW,0.27,181.0,WeatherDisplay:10.37,2013-05-20 20:38:00,
2013-05-20 16:43:00,72.3,58.1,29.83,WNW,298,2.1,3.5,61,0.00,BKN,FEW,0.27,181.0,WeatherDisplay:10.37,2013-05-20 20:43:00,
2013-05-20 16:48:00,72.2,58.9,29.83,WNW,299,2.3,3.5,63,0.00,BKN,FEW,0.27,200.0,WeatherDisplay:10.37,2013-05-20 20:48:00,
2013-05-20 16:53:00,71.8,59.0,29.84,WNW,297,0.2,1.2,64,0.00,BKN,FEW,0.27,163.0,WeatherDisplay:10.37,2013-05-20 20:53:00,
2013-05-20 16:58:00,71.4,59.9,29.84,WNW,296,0.4,2.3,67,0.00,BKN,FEW,0.27,158.0,WeatherDisplay:10.37,2013-05-20 20:58:00,
2013-05-20 17:03:00,71.3,59.8,29.84,West,279,0.4,2.3,67,0.00,BKN,FEW,0.27,151.0,WeatherDisplay:10.37,2013-05-20 21:03:00,
2013-05-20 17:08:00,70.6,61.1,29.85,West,279,0.8,2.0,72,0.00,BKN,FEW,0.27,114.0,WeatherDisplay:10.37,2013-05-20 21:08:00,
2013-05-20 17:13:00,71.1,60.0,29.85,West,275,1.8,4.6,68,0.00,BKN,FEW,0.27,111.0,WeatherDisplay:10.37,2013-05-20 21:13:00,
2013-05-20 17:18:00,71.4,61.5,29.85,West,275,0.8,1.2,71,0.00,BKN,FEW,0.27,104.0,WeatherDisplay:10.37,2013-05-20 21:18:00,
2013-05-20 17:23:00,70.9,60.2,29.84,West,275,0.7,3.5,69,0.00,BKN,FEW,0.27,105.0,WeatherDisplay:10.37,2013-05-20 21:23:00,
2013-05-20 17:29:00,70.6,60.7,29.84,West,275,1.1,2.0,71,0.00,BKN,FEW,0.27,127.0,WeatherDisplay:10.37,2013-05-20 21:29:00,
2013-05-20 17:34:00,69.9,62.7,29.84,West,275,0.0,0.0,78,0.00,BKN,FEW,0.27,121.0,WeatherDisplay:10.37,2013-05-20 21:34:00,
2013-05-20 17:39:00,69.5,62.3,29.85,West,275,0.0,2.3,78,0.00,BKN,FEW,0.27,125.0,WeatherDisplay:10.37,2013-05-20 21:39:00,
2013-05-20 17:44:00,69.0,61.9,29.85,West,275,0.1,2.3,78,0.00,BKN,FEW,0.27,86.0,WeatherDisplay:10.37,2013-05-20 21:44:00,
2013-05-20 17:49:00,69.1,61.9,29.85,West,275,0.0,0.0,78,0.00,BKN,FEW,0.27,127.0,WeatherDisplay:10.37,2013-05-20 21:49:00,
2013-05-20 17:54:00,69.6,60.6,29.86,WSW,253,0.0,0.0,73,0.00,BKN,FEW,0.27,158.0,WeatherDisplay:10.37,2013-05-20 21:54:00,
2013-05-20 17:59:00,69.8,60.8,29.86,WSW,254,1.9,3.0,73,0.00,SCT,FEW,0.27,179.0,WeatherDisplay:10.37,2013-05-20 21:59:00,
2013-05-20 18:04:00,70.0,59.8,29.86,WSW,257,1.4,3.5,70,0.00,SCT,FEW,0.27,185.0,WeatherDisplay:10.37,2013-05-20 22:04:00,
2013-05-20 18:09:00,70.5,59.0,29.85,West,279,1.5,4.0,67,0.00,BKN,FEW,0.27,100.0,WeatherDisplay:10.37,2013-05-20 22:09:00,
2013-05-20 18:14:00,70.7,58.4,29.85,WNW,286,1.3,2.3,65,0.00,BKN,FEW,0.27,105.0,WeatherDisplay:10.37,2013-05-20 22:14:00,
2013-05-20 18:19:00,71.0,59.1,29.85,WNW,286,1.3,3.5,66,0.00,SCT,FEW,0.27,162.0,WeatherDisplay:10.37,2013-05-20 22:19:00,
2013-05-20 18:24:00,71.1,57.9,29.85,WNW,291,1.8,3.5,63,0.00,SCT,FEW,0.27,149.0,WeatherDisplay:10.37,2013-05-20 22:24:00,
2013-05-20 18:29:00,71.3,58.1,29.85,NW,309,3.8,4.6,63,0.00,SCT,FEW,0.27,118.0,WeatherDisplay:10.37,2013-05-20 22:29:00,
2013-05-20 18:34:00,71.2,58.4,29.85,West,275,1.4,4.6,64,0.00,BKN,FEW,0.27,60.0,WeatherDisplay:10.37,2013-05-20 22:34:00,
2013-05-20 18:39:00,71.3,58.5,29.85,West,280,0.3,2.3,64,0.00,BKN,FEW,0.27,49.0,WeatherDisplay:10.37,2013-05-20 22:39:00,
2013-05-20 18:44:00,70.9,59.0,29.85,WNW,288,1.4,3.5,66,0.00,BKN,FEW,0.27,44.0,WeatherDisplay:10.37,2013-05-20 22:44:00,
2013-05-20 18:49:00,69.7,60.7,29.85,WNW,288,0.0,0.0,73,0.00,BKN,FEW,0.27,47.0,WeatherDisplay:10.37,2013-05-20 22:49:00,
2013-05-20 18:54:00,68.5,60.3,29.86,WNW,288,0.3,1.2,75,0.00,BKN,FEW,0.27,42.0,WeatherDisplay:10.37,2013-05-20 22:54:00,
2013-05-20 18:59:00,68.6,60.0,29.86,West,281,0.0,0.0,74,0.00,BKN,FEW,0.27,35.0,WeatherDisplay:10.37,2013-05-20 22:59:00,
2013-05-20 19:04:00,67.9,60.1,29.86,West,280,0.8,3.5,76,0.00,BKN,FEW,0.27,33.0,WeatherDisplay:10.37,2013-05-20 23:04:00,
2013-05-20 19:09:00,67.7,60.6,29.87,West,280,0.1,1.0,78,0.00,BKN,FEW,0.27,32.0,WeatherDisplay:10.37,2013-05-20 23:09:00,
2013-05-20 19:14:00,67.4,59.2,29.87,West,281,1.1,3.5,75,0.00,BKN,FEW,0.27,30.0,WeatherDisplay:10.37,2013-05-20 23:14:00,
2013-05-20 19:19:00,67.5,59.7,29.87,West,280,0.0,0.0,76,0.00,BKN,FEW,0.27,28.0,WeatherDisplay:10.37,2013-05-20 23:19:00,
2013-05-20 19:24:00,66.0,60.3,29.88,West,280,0.1,1.2,82,0.00,BKN,FEW,0.27,23.0,WeatherDisplay:10.37,2013-05-20 23:24:00,
2013-05-20 19:29:00,64.7,60.1,29.88,West,281,0.0,0.0,85,0.00,BKN,FEW,0.27,23.0,WeatherDisplay:10.37,2013-05-20 23:29:00,
2013-05-20 19:34:00,64.0,59.7,29.88,West,281,0.0,0.0,86,0.00,BKN,FEW,0.27,19.0,WeatherDisplay:10.37,2013-05-20 23:34:00,
2013-05-20 19:39:00,63.4,59.5,29.88,West,281,0.0,0.0,87,0.00,BKN,FEW,0.27,14.0,WeatherDisplay:10.37,2013-05-20 23:39:00,
2013-05-20 19:44:00,62.9,59.3,29.88,West,280,0.0,0.0,88,0.00,BKN,FEW,0.27,12.0,WeatherDisplay:10.37,2013-05-20 23:44:00,
2013-05-20 19:49:00,62.5,59.2,29.88,West,280,0.0,0.0,89,0.00,BKN,FEW,0.27,11.0,WeatherDisplay:10.37,2013-05-20 23:49:00,
2013-05-20 19:54:00,62.1,59.1,29.87,West,280,0.0,0.0,90,0.00,BKN,FEW,0.27,9.0,WeatherDisplay:10.37,2013-05-20 23:54:00,
2013-05-20 19:59:00,61.7,58.7,29.87,West,281,0.0,0.0,90,0.00,SCT,FEW,0.27,7.0,WeatherDisplay:10.37,2013-05-20 23:59:00,
2013-05-20 20:04:00,61.4,58.4,29.87,West,281,0.0,0.0,90,0.00,CLR,FEW,0.27,5.0,WeatherDisplay:10.37,2013-05-21 00:04:00,
2013-05-20 20:09:00,61.1,58.1,29.88,West,281,0.0,0.0,90,0.00,CLR,FEW,0.27,0.0,WeatherDisplay:10.37,2013-05-21 00:09:00,
2013-05-20 20:14:00,60.8,58.2,29.88,West,281,0.0,0.0,91,0.00,CLR,FEW,0.27,0.0,WeatherDisplay:10.37,2013-05-21 00:14:00,
2013-05-20 20:19:00,60.6,58.0,29.88,West,280,0.0,0.0,91,0.00,CLR,FEW,0.27,0.0,WeatherDisplay:10.37,2013-05-21 00:19:00,
2013-05-20 20:24:00,60.4,57.8,29.88,West,281,0.0,0.0,91,0.00,CLR,FEW,0.27,0.0,WeatherDisplay:10.37,2013-05-21 00:24:00,
2013-05-20 20:29:00,60.2,57.9,29.88,West,281,0.0,0.0,92,0.00,CLR,FEW,0.27,0.0,WeatherDisplay:10.37,2013-05-21 00:29:00,
2013-05-20 20:34:00,60.0,57.7,29.88,West,281,0.0,0.0,92,0.00,CLR,FEW,0.27,0.0,WeatherDisplay:10.37,2013-05-21 00:34:00,
2013-05-20 20:39:00,59.8,57.5,29.88,West,280,0.0,0.0,92,0.00,CLR,FEW,0.27,0.0,WeatherDisplay:10.37,2013-05-21 00:39:00,
2013-05-20 20:44:00,59.5,57.2,29.88,West,281,0.0,0.0,92,0.00,CLR,FEW,0.27,0.0,WeatherDisplay:10.37,2013-05-21 00:44:00,
2013-05-20 20:49:00,59.3,57.3,29.88,West,281,0.0,0.0,93,0.00,CLR,FEW,0.27,0.0,WeatherDisplay:10.37,2013-05-21 00:49:00,
2013-05-20 20:54:00,59.0,57.0,29.89,West,281,0.0,0.0,93,0.00,CLR,FEW,0.27,0.0,WeatherDisplay:10.37,2013-05-21 00:54:00,
2013-05-20 20:59:00,59.0,57.0,29.89,West,281,0.0,0.0,93,0.00,CLR,FEW,0.27,0.0,WeatherDisplay:10.37,2013-05-21 00:59:00,
2013-05-20 21:04:00,58.9,57.2,29.89,West,281,0.0,0.0,94,0.00,CLR,FEW,0.27,0.0,WeatherDisplay:10.37,2013-05-21 01:04:00,
2013-05-20 21:09:00,58.6,56.9,29.89,West,281,0.0,0.0,94,0.00,CLR,FEW,0.27,0.0,WeatherDisplay:10.37,2013-05-21 01:09:00,
2013-05-20 21:14:00,58.5,56.8,29.89,West,281,0.0,0.0,94,0.00,CLR,FEW,0.27,0.0,WeatherDisplay:10.37,2013-05-21 01:14:00,
2013-05-20 21:19:00,58.2,56.8,29.89,West,280,0.0,0.0,95,0.00,CLR,FEW,0.27,0.0,WeatherDisplay:10.37,2013-05-21 01:19:00,
2013-05-20 21:24:00,58.0,56.6,29.89,West,281,0.0,0.0,95,0.00,CLR,FEW,0.27,0.0,WeatherDisplay:10.37,2013-05-21 01:24:00,
2013-05-20 21:29:00,57.8,56.4,29.89,West,281,0.0,0.0,95,0.00,CLR,FEW,0.27,0.0,WeatherDisplay:10.37,2013-05-21 01:29:00,
2013-05-20 21:34:00,57.6,56.2,29.89,West,280,0.0,0.0,95,0.00,CLR,FEW,0.27,0.0,WeatherDisplay:10.37,2013-05-21 01:34:00,
2013-05-20 21:39:00,57.4,56.0,29.89,West,281,0.0,0.0,95,0.00,CLR,FEW,0.27,0.0,WeatherDisplay:10.37,2013-05-21 01:39:00,
2013-05-20 21:44:00,57.5,56.1,29.89,West,280,0.0,0.0,95,0.00,CLR,FEW,0.27,0.0,WeatherDisplay:10.37,2013-05-21 01:44:00,
2013-05-20 21:49:00,57.3,56.2,29.89,West,281,0.0,0.0,96,0.00,CLR,FEW,0.27,0.0,WeatherDisplay:10.37,2013-05-21 01:49:00,
2013-05-20 21:54:00,57.2,56.1,29.89,West,281,0.0,0.0,96,0.00,CLR,FEW,0.27,0.0,WeatherDisplay:10.37,2013-05-21 01:54:00,
2013-05-20 21:59:00,57.0,55.9,29.89,West,281,0.0,0.0,96,0.00,CLR,FEW,0.27,0.0,WeatherDisplay:10.37,2013-05-21 01:59:00,
2013-05-20 22:04:00,56.8,55.7,29.89,West,281,0.0,0.0,96,0.00,CLR,FEW,0.27,0.0,WeatherDisplay:10.37,2013-05-21 02:04:00,
2013-05-20 22:09:00,56.8,55.7,29.90,West,281,0.0,0.0,96,0.00,CLR,FEW,0.27,0.0,WeatherDisplay:10.37,2013-05-21 02:09:00,
2013-05-20 22:14:00,57.0,55.9,29.90,West,280,0.0,0.0,96,0.00,CLR,FEW,0.27,0.0,WeatherDisplay:10.37,2013-05-21 02:14:00,
2013-05-20 22:19:00,56.7,55.6,29.90,West,280,0.0,0.0,96,0.00,CLR,FEW,0.27,0.0,WeatherDisplay:10.37,2013-05-21 02:19:00,
2013-05-20 22:24:00,56.5,55.4,29.90,West,281,0.0,0.0,96,0.00,CLR,FEW,0.27,0.0,WeatherDisplay:10.37,2013-05-21 02:24:00,
2013-05-20 22:29:00,56.3,55.2,29.90,West,281,0.0,0.0,96,0.00,CLR,FEW,0.27,0.0,WeatherDisplay:10.37,2013-05-21 02:29:00,
2013-05-20 22:34:00,56.1,55.0,29.90,West,281,0.0,0.0,96,0.00,CLR,FEW,0.27,0.0,WeatherDisplay:10.37,2013-05-21 02:34:00,
2013-05-20 22:39:00,55.9,54.8,29.90,West,281,0.0,0.0,96,0.00,CLR,FEW,0.27,0.0,WeatherDisplay:10.37,2013-05-21 02:39:00,
2013-05-20 22:44:00,55.8,55.0,29.90,West,281,0.0,0.0,97,0.00,CLR,FEW,0.27,0.0,WeatherDisplay:10.37,2013-05-21 02:44:00,
2013-05-20 22:49:00,55.7,54.9,29.90,West,280,0.0,0.0,97,0.00,CLR,FEW,0.27,0.0,WeatherDisplay:10.37,2013-05-21 02:49:00,
2013-05-20 22:54:00,55.6,54.8,29.90,West,281,0.0,0.0,97,0.00,CLR,FEW,0.27,0.0,WeatherDisplay:10.37,2013-05-21 02:54:00,
2013-05-20 22:59:00,55.5,54.7,29.90,West,280,0.0,0.0,97,0.00,CLR,FEW,0.27,0.0,WeatherDisplay:10.37,2013-05-21 02:59:00,
2013-05-20 23:04:00,55.3,54.5,29.90,West,281,0.0,0.0,97,0.00,CLR,FEW,0.27,0.0,WeatherDisplay:10.37,2013-05-21 03:04:00,
2013-05-20 23:09:00,55.3,54.5,29.90,West,281,0.0,0.0,97,0.00,CLR,FEW,0.27,0.0,WeatherDisplay:10.37,2013-05-21 03:09:00,
2013-05-20 23:14:00,55.2,54.4,29.90,West,281,0.0,0.0,97,0.00,CLR,FEW,0.27,0.0,WeatherDisplay:10.37,2013-05-21 03:14:00,
2013-05-20 23:19:00,54.9,54.1,29.90,West,280,0.0,0.0,97,0.00,CLR,FEW,0.27,0.0,WeatherDisplay:10.37,2013-05-21 03:19:00,
2013-05-20 23:24:00,55.0,54.2,29.91,West,281,0.0,0.0,97,0.00,CLR,FEW,0.27,0.0,WeatherDisplay:10.37,2013-05-21 03:24:00,
2013-05-20 23:29:00,54.8,54.0,29.91,West,280,0.0,0.0,97,0.00,CLR,FEW,0.27,0.0,WeatherDisplay:10.37,2013-05-21 03:29:00,
2013-05-20 23:34:00,54.7,53.9,29.91,West,281,0.0,0.0,97,0.00,CLR,FEW,0.27,0.0,WeatherDisplay:10.37,2013-05-21 03:34:00,
2013-05-20 23:39:00,54.6,53.8,29.91,West,281,0.0,0.0,97,0.00,CLR,FEW,0.27,0.0,WeatherDisplay:10.37,2013-05-21 03:39:00,
2013-05-20 23:44:00,54.5,53.7,29.91,West,281,0.0,0.0,97,0.00,CLR,FEW,0.27,0.0,WeatherDisplay:10.37,2013-05-21 03:44:00,
2013-05-20 23:49:00,54.4,53.6,29.91,West,280,0.0,0.0,97,0.00,CLR,FEW,0.27,0.0,WeatherDisplay:10.37,2013-05-21 03:49:00,
2013-05-20 23:54:00,54.2,53.4,29.91,West,281,0.0,0.0,97,0.00,CLR,FEW,0.27,0.0,WeatherDisplay:10.37,2013-05-21 03:54:00,
2013-05-20 23:59:00,54.1,53.3,29.91,West,281,0.0,0.0,97,0.00,CLR,FEW,0.27,0.0,WeatherDisplay:10.37,2013-05-21 03:59:00,